Regional Weather Roundup
Issued by NWS Charleston, SC

Home | Current Version | Previous Version | Text Only | Print | Product List | Glossary On
Versions: 1 2 3 4 5 6 7 8 9 10 11 12 13 14 15 16 17 18 19 20 21 22 23 24 25 26 27 28 29 30 31 32 33 34 35 36 37 38 39 40 41 42 43 44 45 46 47 48 49 50
831
ASUS42 KCHS 200127
RWRCHS

REGIONAL WEATHER ROUNDUP
NATIONAL WEATHER SERVICE CHARLESTON SC
900 PM EDT SAT AUG 19 2017

NOTE: "FAIR" INDICATES FEW OR NO CLOUDS BELOW 12,000 FEET WITH NO
SIGNIFICANT WEATHER AND/OR OBSTRUCTIONS TO VISIBILITY.

NOT ALL STATIONS ARE QUALITY CONTROLLED. USE DATA WITH CAUTION...
ESPECIALLY DEWPOINT OBSERVATIONS.

SCZ027-030-031-034>040-042>050-200200-
...SOUTHEAST SOUTH CAROLINA...

CITY           SKY/WX    TMP DP  RH WIND       PRES   REMARKS
N CHARLESTON   PTCLDY    83  79  88 S8        29.94R HX  94
WATERFRONT PRK   N/A    N/A N/A N/A SW7       29.79R
JOHNS ISLAND   FAIR      84  81  89 S9        29.96R HX  98
PINOPOLIS        N/A     84  79  84 VRB2      29.87R HX  96
MONCKS CORNER  FAIR      82  75  78 S6        29.95R
SUMMERVILLE    FAIR      81  77  89 CALM      29.96R
BEAUFORT MCAS  PTCLDY    86  80  82 S7        29.95R HX 101
BEAUFORT ARPT  FAIR      84  79  84 S7        29.96R HX  96
HILTON HEAD IS CLEAR     84  81  89 S8        29.97R HX  98
WALTERBORO     PTCLDY    81  75  83 S6        29.96R
ALLENDALE      NOT AVBL

...SOUTHERN MIDLANDS AND PEE DEE...

CITY           SKY/WX    TMP DP  RH WIND       PRES   REMARKS
GEORGETOWN     FAIR      81  79  94 S5        29.96R
KINGSTREE      FAIR      77  73  88 CALM      29.94R
ORANGEBURG     CLEAR     79  69  71 CALM      29.94R
BARNWELL       FAIR      81  73  78 CALM      29.96R
AIKEN          FAIR      77  68  73 SW3       30.00R
MANNING        FAIR      79  77  94 S7        29.94R
COLUMBIA       MOCLDY    86  70  58 CALM      29.93R HX  90
SUMTER         CLEAR     86  67  53 SW5       29.91R
FLORENCE       CLEAR     82  76  81 E8        29.94R
MYRTLE BEACH   CLEAR     84  75  74 S9        29.94S HX  92
N MYRTLE BEACH PTCLDY    83  78  85 S6        29.94S HX  93

$$

GAZ063-065-086>088-099>101-113>116-118-119-134>141-150-200200-
...SOUTHEAST GEORGIA...

CITY           SKY/WX    TMP DP  RH WIND       PRES   REMARKS
SAVANNAH ARPT  CLOUDY    85  76  74 S10       29.96R HX  94
HUNTER AAF     PTCLDY    84  78  81 S5        29.94R HX  95
FORT STEWART   CLOUDY    83  74  73 S7        29.94R HX  90
STATESBORO     CLOUDY    80  69  70 CALM      29.96R
SYLVANIA       CLEAR     78  76  94 CALM      29.97R
CLAXTON        FAIR      80  76  86 CALM      29.95R

...CSRA...CENTRAL AND FAR SOUTHEAST GEORGIA...

CITY           SKY/WX    TMP DP  RH WIND       PRES   REMARKS
THOMSON        CLEAR     77  73  88 CALM      30.02R
AUGUSTA-BUSH   CLEAR     79  74  84 CALM      29.94R
AUGUSTA-DANIEL CLEAR     87  64  46 W3        29.96R
SWAINSBORO     FAIR      81  72  74 CALM      29.98R
VIDALIA        CLEAR     82  70  65 CALM      29.97R
EASTMAN        FAIR      81  65  58 CALM      30.00R
HAZLEHURST     FAIR      82  65  57 CALM      29.96R
ALMA           CLOUDY    80  71  74 CALM      29.95R
WAYCROSS       CLOUDY    85  70  61 S5        29.95S
JESUP          FAIR      84  75  74 CALM      29.96R HX  92
BAXLEY         FAIR      79  72  78 CALM      29.95R
BRUNSWICK      PTCLDY    81  77  89 S3        29.97S
SAINT SIMONS   PTCLDY    85  78  80 S6        29.96S HX  96

$$

SCZ027-028-034-036>038-045-046-048>050-GAZ119-141-200200-
...LAKE AND SUPPLEMENTAL COASTAL OBSERVATIONS...

STATION/POSITION TIME  TEMP    WIND        PRES    WAVE   SWELL
                       AIR SEA DIR/SP/G            HT/PER HT/PER/DIR
                 (UTC) (F)     (DEG/KT/KT) (MB)    (FT/S) (FT/S/D)
WINYAH BAY       2345   85     200/  8     1014.0
LAKE MURRAY      0020   89      CALM  /  2 1012.5R
ACE BASIN NERRS  2345   86        CALM     1014.0
FORT PULASKI     0100   85 87  210/  7/ 11 1015.0
SAPELO ISLAND    0000   83     170/  6     1014.0

$$

ANZ835-935-AMZ111-154-330-350-352-354-370-450-454-472-200200-
...C-MAN AND BUOY OBSERVATIONS...

STATION/POSITION TIME  TEMP    WIND        PRES    WAVE   SWELL
                       AIR SEA DIR/SP/G            HT/PER HT/PER/DIR
                 (UTC) (F)     (DEG/KT/KT) (MB)    (FT/S) (FT/S/D)
BUOY 41004       0110   83 85  190/ 12/ 16 1014.0
BUOY 41008       0050   85 85  180/ 14/ 16 1014.3R   2/10   2/100/10
FOLLY BEACH CMAN 0100   84     200/ 11/ 13 1014.9R
CAPERS NEARSHORE 0108   81 85  220/ 14/ 17 1013.9R
FRIPP NEARSHORE  0108   85     210/ 12/ 16 1014.2R


STATION/POSITION TIME  TEMP    WIND        PRES    WAVE   SWELL
                       AIR SEA DIR/SP/G            HT/PER HT/PER/DIR
                 (UTC) (F)     (DEG/KT/KT) (MB)    (FT/S) (FT/S/D)
5E ST. MARYS GA  0100      85                N/A     2/10
FRYING PAN BUOY  0110   84 84  210/ 10/ 14 1014.5
BUOY 41025       0050   82 83  250/  6/  8 1013.9R   3/ 9   3/120/ 9
CAPE LOOKOUT NC  0100   80     150/  5/  6 1014.2R
BUOY 41002       0050   84 85  200/  8/ 10 1017.0R   4/ 8   3/100/ 8
BUOY 41010       0110   84 85  140/ 12/ 16 1015.5
ST AUGUSTINE FL  0100   83 83  160/ 11/ 12 1015.3R


$$




USA.gov is the U.S. government's official web portal to all federal, state and local government web resources and services.